Theta_e
314 310 306 310 311 311 312 313 314 311 313 313 314 313 311 309 308 307 306 307 307 309 310 312 314 318 322 324 327 328 329 329 328 327 326 325 326 327 326 325 325 323 322 322
309 312 309 310 310 311 313 310 310 311 314 315 314 313 309 308 308 306 304 303 305 307 309 310 314 315 319 321 325 329 329 328 327 327 327 326 324 325 324 324 323 324 324 324
310 310 309 309 309 312 311 308 309 310 314 313 311 313 309 309 308 307 305 303 303 307 309 309 310 312 315 316 322 325 328 328 328 327 327 326 325 324 325 325 323 325 325 326
309 308 309 308 310 309 310 313 310 312 317 317 310 312 308 307 308 307 306 304 305 306 308 309 309 310 311 312 315 313 326 327 327 327 327 327 326 325 325 323 324 325 325 326
309 308 308 309 309 308 309 309 311 313 316 317 308 309 309 307 308 307 307 307 308 306 306 308 309 309 310 309 313 310 316 325 327 326 328 328 327 326 325 326 326 326 326 324
308 308 307 308 307 307 308 310 311 314 316 316 306 307 304 309 308 307 306 306 306 306 307 306 308 308 309 309 308 309 311 316 320 323 326 326 325 326 326 326 326 325 323 321
309 308 308 308 308 309 308 309 305 308 308 310 309 309 306 308 307 306 305 305 305 305 306 306 307 307 308 308 309 310 311 311 312 314 316 315 316 317 319 321 320 317 319 318
308 307 308 308 308 309 308 310 306 310 312 310 308 308 306 307 307 306 304 302 302 302 302 304 306 308 307 308 309 309 310 310 311 312 313 313 312 312 313 313 314 314 314 314
309 310 308 308 307 307 309 308 309 311 305 310 308 309 308 307 305 303 302 301 300 300 301 303 303 304 304 304 307 308 308 309 310 310 311 312 312 312 311 311 312 312 312 312
308 306 307 307 307 308 309 308 309 305 306 310 309 308 308 307 304 301 300 300 300 299 299 299 299 300 300 302 303 305 308 308 308 308 309 310 310 309 310 310 310 311 311 311
307 306 306 307 308 308 308 309 309 307 308 313 312 308 304 304 302 300 300 300 300 299 299 299 298 299 299 299 300 303 303 303 304 305 306 306 306 305 304 305 306 307 309 310
307 306 303 307 305 306 307 309 309 307 309 307 309 308 305 301 300 300 300 300 300 300 299 299 298 298 298 298 299 299 299 302 303 303 303 303 303 303 303 303 303 303 304 304
306 297 295 305 304 306 308 308 309 308 306 308 309 307 302 301 300 300 300 300 300 300 299 298 298 298 298 298 298 298 298 299 299 299 301 302 303 303 303 302 302 302 302 303
306 303 302 305 306 305 305 306 307 308 304 308 307 307 303 300 298 299 300 300 299 299 298 298 298 298 298 297 298 298 298 298 298 298 298 299 299 301 302 303 303 303 303 303
305 299 303 303 303 304 304 304 303 305 306 307 306 306 304 301 298 300 300 300 299 298 298 298 297 298 297 297 297 297 297 298 298 298 298 298 299 299 299 299 300 301 301 302
303 296 298 295 301 301 303 302 301 301 302 303 305 306 304 304 301 300 300 299 299 298 298 298 297 297 297 297 297 297 297 297 297 297 298 298 298 298 299 299 299 299 299 300
301 295 290 293 296 292 294 294 300 301 301 303 305 306 302 300 300 300 300 300 299 298 298 297 297 297 297 297 297 297 296 297 297 297 297 297 297 297 298 298 298 298 299 299
296 294 287 291 287 293 298 297 297 299 300 302 305 305 303 303 301 302 301 300 299 298 298 297 297 297 297 297 297 296 296 297 297 297 297 297 297 297 297 297 297 297 297 298
298 298 289 291 284 295 298 296 296 297 298 299 303 304 302 301 301 300 301 300 299 298 298 297 297 297 297 296 296 296 296 297 297 297 297 297 297 297 297 297 297 297 297 297
297 297 293 283 288 291 297 296 298 297 294 297 302 303 300 301 300 297 300 300 298 298 298 297 297 297 296 296 296 296 296 296 296 296 296 296 296 296 296 296 296 296 297 297
298 292 292 284 287 293 295 296 298 293 297 298 300 305 301 301 302 302 300 300 299 298 298 297 297 296 297 297 297 297 297 296 296 296 296 296 296 295 295 295 295 295 296 296
298 297 292 287 291 298 297 296 296 297 298 299 302 305 303 303 303 302 300 299 298 298 297 297 296 297 297 297 296 296 295 295 294 294 293 293 293 293 293 293 293 293 293 293
298 298 297 298 299 298 297 297 298 299 299 299 303 304 305 302 303 302 300 299 298 298 297 297 297 297 297 296 295 294 294 293 292 292 292 292 293 293 293 293 293 294 294 294
296 298 297 298 298 297 298 298 299 298 298 298 302 303 303 303 302 301 299 298 298 297 297 298 297 297 296 295 294 293 293 292 292 292 292 292 292 292 293 293 293 293 293 293
295 296 296 295 296 296 298 299 298 298 298 298 299 301 302 301 300 300 298 298 298 297 298 297 297 296 295 294 293 292 292 292 293 293 293 293 293 293 293 293 293 293 293 293
295 295 298 297 298 299 298 300 299 298 298 298 299 300 301 301 300 298 298 298 297 297 297 297 296 295 294 293 292 292 293 293 292 292 292 292 292 292 292 292 292 292 292 293
Wind_Speed
1 4 2 3 2 6 6 4 7 5 4 3 5 5 11 16 18 22 22 23 27 27 24 23 21 19 19 17 21 26 39 34 33 31 30 34 35 32 26 21 19 17 15 15
4 2 2 2 4 5 4 2 4 6 3 2 6 4 7 13 12 13 18 24 30 28 21 17 13 13 10 17 21 26 35 40 38 35 31 32 33 34 29 25 23 20 19 18
3 1 1 3 5 1 3 3 3 7 4 2 7 1 8 9 11 16 18 20 27 29 20 20 20 20 10 6 6 10 40 35 34 35 28 26 25 22 28 28 27 24 22 22
2 4 1 4 2 2 4 6 6 5 2 2 3 4 4 10 10 15 18 16 21 26 25 26 25 26 26 19 15 6 19 34 33 31 29 25 25 28 26 27 26 23 24 22
3 3 3 3 1 2 7 7 6 2 1 3 2 2 5 9 11 16 17 18 15 19 22 25 27 27 31 30 26 23 24 25 30 26 28 25 21 20 20 24 23 26 21 17
6 5 4 3 7 4 7 6 3 3 2 1 5 3 5 8 9 11 14 20 22 21 24 25 24 25 26 30 33 26 32 32 24 23 23 19 15 18 17 19 19 19 18 18
3 2 3 1 4 4 6 5 3 5 3 3 0 5 4 5 5 3 10 15 22 20 24 28 33 29 27 25 24 28 38 38 27 29 27 24 25 24 20 17 20 21 21 16
1 4 1 2 1 2 4 1 3 3 1 4 4 1 4 3 4 0 10 13 19 21 22 23 22 25 29 29 22 23 26 29 28 30 30 27 26 23 25 19 18 17 18 15
2 1 2 1 1 1 4 3 2 1 2 2 2 1 3 3 3 10 11 15 18 18 22 23 21 18 17 14 18 29 31 30 27 25 24 22 22 25 24 20 23 21 16 15
1 1 1 1 1 4 2 2 1 3 2 3 2 2 3 3 2 5 8 11 14 17 18 18 17 16 16 13 13 17 20 18 25 25 25 23 20 20 21 20 20 17 8 14
1 3 4 3 1 2 4 2 2 2 4 2 2 4 5 6 5 5 5 8 10 13 15 17 18 18 20 21 22 20 16 15 16 15 13 11 12 14 13 13 12 8 7 6
1 3 1 1 2 1 1 2 0 3 3 2 1 4 4 6 9 10 5 7 8 9 11 13 15 17 19 21 22 22 21 20 16 11 8 9 9 10 10 10 10 9 9 9
4 1 2 5 4 3 3 3 2 1 2 4 3 4 2 9 9 9 7 5 6 6 8 10 13 15 18 20 21 21 21 21 19 15 14 13 13 11 12 12 10 10 10 11
2 3 4 5 3 2 4 3 3 3 2 2 5 5 6 7 8 12 11 8 5 5 5 8 10 13 15 16 18 18 19 18 18 16 17 16 16 15 14 13 12 12 11 11
2 4 4 5 8 5 6 8 8 6 7 4 3 7 8 12 10 20 16 11 9 6 4 6 8 10 11 13 14 15 15 16 18 18 18 19 17 15 14 14 13 13 12 12
2 1 3 4 4 6 7 10 10 10 8 7 7 8 9 21 21 18 18 15 11 7 5 4 5 6 8 11 12 13 14 15 14 16 17 17 16 15 15 14 14 12 11 11
5 4 3 5 4 6 9 10 17 6 7 11 9 8 6 6 18 26 23 19 16 12 7 4 3 5 6 7 9 9 11 12 13 16 18 18 18 18 18 17 15 15 14 13
5 5 3 3 4 2 6 4 5 12 8 10 5 6 16 23 28 27 23 21 16 11 7 4 4 4 5 5 7 9 9 9 11 13 14 15 16 17 17 17 17 17 17 17
1 4 1 3 3 8 6 5 6 7 6 13 12 5 12 20 23 16 22 20 17 12 8 5 4 2 2 3 4 6 6 7 8 9 10 13 15 15 16 17 17 18 18 18
3 3 4 3 4 6 4 2 4 4 5 7 18 11 16 25 8 5 26 23 18 14 9 6 6 3 2 3 5 5 6 6 8 11 12 12 13 13 14 15 16 17 18 19
4 1 6 3 3 8 8 7 7 5 5 3 21 24 28 11 13 21 28 24 20 14 10 9 8 7 5 2 1 2 5 7 9 9 9 9 11 11 12 13 15 17 18 19
9 9 4 3 3 10 13 7 7 5 3 2 11 27 33 24 17 21 32 28 23 16 12 10 9 8 4 2 1 3 4 5 6 7 8 9 11 13 15 16 18 20 22 23
5 8 6 10 7 4 30 8 16 7 4 5 12 22 33 26 21 26 34 29 22 16 14 12 10 7 4 3 1 2 3 4 5 8 9 10 11 13 15 17 19 20 21 23
5 12 4 3 7 13 25 21 14 19 10 5 11 19 27 28 23 30 32 27 22 18 15 13 11 9 7 6 3 1 2 4 7 7 8 10 11 12 14 16 19 21 22 23
7 13 8 4 8 6 19 31 29 21 15 15 15 22 25 28 29 31 31 26 21 19 16 14 12 10 10 7 4 4 3 5 5 7 9 11 14 17 18 19 21 22 22 25
12 7 9 7 16 19 15 24 29 29 28 21 20 26 27 29 29 31 29 25 22 20 17 15 14 15 11 8 6 4 3 5 7 10 12 15 18 21 22 24 25 23 26 26
Wind_Direction
251 54 125 132 138 191 217 285 299 275 299 327 333 354 349 1 2 9 354 343 335 341 332 318 317 300 286 264 250 239 208 207 207 210 205 201 202 206 205 213 220 225 238 244
29 16 206 216 257 260 257 250 285 299 337 329 345 13 9 4 6 16 360 347 342 349 358 6 359 348 322 292 246 206 196 204 209 216 210 207 203 208 213 214 228 226 230 240
150 218 298 346 321 15 272 179 247 236 311 92 328 156 5 358 350 351 353 354 358 345 14 33 42 38 11 355 187 199 188 199 201 209 209 206 205 208 220 222 222 225 233 239
220 170 22 325 312 48 299 188 190 309 359 316 67 309 1 352 345 348 352 349 344 3 24 37 42 52 48 46 67 55 189 192 201 205 205 205 204 204 214 217 222 230 233 236
228 115 38 316 103 46 248 306 282 203 346 266 304 356 309 6 350 342 355 6 12 20 19 28 44 55 59 55 62 49 98 158 194 197 194 196 204 218 220 223 227 234 222 226
236 136 147 209 293 228 276 300 281 143 201 49 261 119 319 4 333 343 3 20 20 36 38 41 51 54 52 62 60 56 63 81 95 144 162 185 191 189 207 213 213 214 215 228
341 175 124 69 330 326 20 26 351 5 26 250 50 63 226 274 301 359 16 30 28 35 47 44 54 52 55 56 53 56 65 66 72 82 95 89 90 93 117 137 128 111 136 122
46 349 72 341 124 274 295 90 151 188 321 270 16 354 277 242 278 212 31 38 39 32 33 38 38 45 46 51 57 64 65 65 60 68 71 78 80 75 81 84 99 80 80 87
34 145 102 76 327 52 330 58 227 109 30 43 197 347 313 155 87 60 42 28 45 42 45 44 40 37 42 31 43 63 70 73 71 66 71 76 72 73 72 66 75 72 74 78
346 7 343 94 351 277 249 247 57 5 44 301 287 179 227 184 102 54 56 39 33 47 51 54 58 64 57 49 46 61 62 59 67 70 72 73 78 77 74 71 71 67 52 63
347 104 298 66 48 268 335 346 339 154 140 259 303 250 209 168 157 125 84 72 61 50 51 51 50 49 51 52 54 57 58 59 59 58 58 54 56 69 68 61 60 62 43 45
177 115 189 163 263 224 276 282 268 120 293 249 211 268 153 151 148 140 117 91 73 54 54 58 57 57 59 60 58 58 60 66 65 68 79 83 77 76 75 76 72 63 54 52
165 330 29 354 349 331 258 220 210 231 127 224 145 257 177 141 148 153 140 111 77 78 67 61 60 57 56 57 57 59 61 63 66 66 68 72 74 74 74 69 68 64 58 50
112 109 167 195 181 168 275 257 249 182 148 226 222 173 200 187 180 170 162 153 133 109 86 77 66 61 60 56 56 56 58 58 61 64 65 64 64 60 58 58 56 51 48 46
170 165 197 255 260 253 226 238 246 229 224 187 196 187 213 196 190 181 173 165 156 140 99 60 60 62 61 58 56 54 53 52 52 56 57 55 54 55 55 52 48 45 38 34
220 210 100 291 283 252 255 239 234 236 245 251 253 268 210 207 190 179 177 170 169 164 136 96 62 70 69 59 51 44 46 49 48 56 56 56 56 54 53 52 49 42 36 28
155 128 94 269 351 336 297 226 214 199 205 211 215 222 146 157 175 182 181 179 178 170 154 130 95 79 66 54 44 41 42 45 44 46 49 50 49 47 44 41 35 30 24 18
143 120 111 238 26 290 246 182 177 209 235 218 194 196 186 183 188 186 189 183 181 172 168 154 119 85 69 43 26 29 35 42 43 44 44 43 43 42 37 33 28 23 16 9
148 134 117 154 196 295 279 192 179 184 267 211 211 190 165 157 161 176 189 196 187 178 178 168 150 116 45 26 38 47 50 48 46 45 37 33 30 26 22 18 13 8 4 358
88 81 134 83 155 235 247 185 183 124 287 219 194 174 153 145 163 213 185 190 186 181 184 181 177 175 139 91 65 63 59 49 41 37 29 25 17 11 6 1 354 348 345 342
136 39 181 180 218 283 237 187 162 97 230 315 197 183 165 180 195 188 179 188 191 184 182 184 184 170 156 125 66 34 38 34 31 26 16 9 1 351 345 342 335 332 328 323
171 164 188 123 160 265 171 123 183 205 168 186 188 192 183 188 177 178 185 187 184 181 181 180 181 183 184 204 298 32 49 43 25 13 6 360 348 338 336 337 334 331 328 325
206 189 183 194 206 216 182 199 203 193 180 174 192 193 191 184 183 187 187 186 180 180 178 183 194 201 206 229 142 58 19 11 10 3 355 347 339 333 331 330 328 327 323 317
233 198 217 129 233 221 212 215 216 221 221 195 200 198 194 192 191 183 181 179 181 182 188 192 198 202 208 186 196 288 318 344 359 349 335 330 333 332 327 326 325 323 317 316
191 156 177 266 265 279 239 225 228 225 222 215 200 199 196 189 181 182 180 182 185 188 194 198 199 203 192 197 220 261 316 344 334 327 333 337 338 338 336 332 327 327 330 326
189 174 186 211 211 199 234 229 230 221 222 212 200 194 197 197 193 187 186 189 190 191 195 198 196 195 200 211 229 254 297 312 323 327 332 337 337 335 329 327 330 334 332 331